Rochelle, IL

2:23 AM CST on November 13, 2019 (GMT -0600)
Rochelle

Weather History for KRPJ - September, 2019

Change the Weather History Date:

Thursday, September 19, 2019

  Actual Average (KRFD) Record (KRFD)
Temperature  
Mean Temperature 66 °F -  
Max Temperature 74 °F 73 °F 93 °F (1948)
Min Temperature 59 °F 53 °F 34 °F (1929)
Cooling Degree Days 2    
Growing Degree Days 16 (Base 50)    
Moisture  
Dew Point 65 °F    
Average Humidity 94    
Maximum Humidity 100    
Minimum Humidity 75    
Precipitation  
Precipitation 0.13 in - - ()
Sea Level Pressure  
Sea Level Pressure 30.08 in    
Wind  
Wind Speed 4 mph ()    
Max Wind Speed 13 mph    
Max Gust Speed 21 mph    
Visibility 8.7 miles    
Events Rain , Thunderstorm    
Averages and records for this station are not official NWS values.
T = Trace of Precipitation, MM = Missing Value Source: Averaged Metar Reports

Daily Weather History Graph

Daily Weather History Graph

Search for Another Location

Airport or City:

Astronomy

Sep. 19, 2019 Rise Set
Actual Time 6:40 AM CDT 6:59 PM CDT
Civil Twilight 6:12 AM CDT 7:27 PM CDT
Nautical Twilight 5:39 AM CDT 7:59 PM CDT
Astronomical Twilight 5:06 AM CDT 8:33 PM CDT
Moon 10:03 PM CDT (9/19) 11:48 AM CDT (9/19)
Length of Visible Light 13h 14m
Length of Day
12h 18m
Waning Gibbous, 74% of the Moon is Illuminated
Sep 19
Waning Gibbous
Sep 21
Last Quarter
Sep 28
New
Oct 5
First Quarter
Oct 13
Full

Hourly Weather History & Observations

Time (CDT) Temp. Dew Point Humidity Pressure Visibility Wind Dir Wind Speed Gust Speed Precip Events Conditions
12:15 AM 64.6 °F 63.0 °F 94% 30.08 in 10.0 mi SSE 3.5 mph - N/A   Clear
12:35 AM 64.4 °F 62.6 °F 94% 30.08 in 10.0 mi SE 5.8 mph - N/A   Clear
12:55 AM 63.1 °F 62.4 °F 97% 30.09 in 10.0 mi Calm Calm - N/A   Clear
1:15 AM 62.6 °F 62.2 °F 99% 30.09 in 10.0 mi SSE 4.6 mph - N/A   Clear
1:35 AM 62.4 °F 62.1 °F 99% 30.09 in 10.0 mi SSE 4.6 mph - N/A   Clear
1:55 AM 62.8 °F 62.2 °F 98% 30.09 in 10.0 mi SSE 4.6 mph - N/A   Clear
2:15 AM 62.4 °F 61.9 °F 98% 30.09 in 10.0 mi SE 3.5 mph - N/A   Clear
2:35 AM 62.4 °F 61.9 °F 98% 30.08 in 10.0 mi SE 6.9 mph - N/A   Clear
2:55 AM 62.2 °F 61.7 °F 98% 30.07 in 10.0 mi SSE 3.5 mph - N/A   Clear
3:15 AM 62.1 °F 61.2 °F 97% 30.07 in 10.0 mi SSE 3.5 mph - N/A   Clear
3:35 AM 61.7 °F 61.2 °F 98% 30.06 in 10.0 mi SE 5.8 mph - N/A   Clear
3:55 AM 61.9 °F 61.3 °F 98% 30.06 in 10.0 mi SE 5.8 mph - N/A   Clear
4:15 AM 61.7 °F 61.0 °F 97% 30.06 in 10.0 mi Calm Calm - N/A   Clear
4:35 AM 61.2 °F 60.8 °F 99% 30.06 in 10.0 mi Calm Calm - N/A   Clear
4:55 AM 60.1 °F 60.1 °F 100% 30.06 in 7.0 mi Calm Calm - N/A   Clear
5:15 AM 59.5 °F 59.5 °F 100% 30.06 in 7.0 mi SE 4.6 mph - N/A   Clear
5:35 AM 59.9 °F 59.9 °F 100% 30.05 in 10.0 mi SSE 4.6 mph - N/A   Clear
5:55 AM 60.8 °F 60.3 °F 98% 30.06 in 10.0 mi SE 4.6 mph - N/A   Clear
6:15 AM 60.8 °F 60.1 °F 97% 30.06 in 10.0 mi SE 3.5 mph - N/A   Clear
6:35 AM 60.8 °F 60.1 °F 97% 30.07 in 10.0 mi SE 3.5 mph - N/A   Clear
6:55 AM 60.8 °F 60.1 °F 97% 30.07 in 10.0 mi SE 4.6 mph - N/A   Clear
7:15 AM 61.7 °F 60.8 °F 97% 30.08 in 10.0 mi SSE 4.6 mph - N/A   Clear
7:35 AM 63.0 °F 61.7 °F 96% 30.08 in 10.0 mi SSE 6.9 mph - N/A   Clear
7:55 AM 64.4 °F 62.8 °F 94% 30.09 in 10.0 mi SSE 6.9 mph - N/A   Scattered Clouds
8:15 AM 65.7 °F 62.6 °F 90% 30.09 in 10.0 mi SSE 6.9 mph - N/A   Scattered Clouds
8:35 AM 66.4 °F 63.0 °F 89% 30.09 in 10.0 mi SSE 6.9 mph - N/A   Scattered Clouds
8:55 AM 67.1 °F 63.7 °F 89% 30.10 in 10.0 mi South 3.5 mph - N/A   Mostly Cloudy
9:15 AM 68.7 °F 64.2 °F 86% 30.10 in 10.0 mi SSE 3.5 mph - N/A   Mostly Cloudy
9:35 AM 70.9 °F 64.4 °F 80% 30.10 in 10.0 mi Calm Calm - N/A   Mostly Cloudy
9:55 AM 71.1 °F 64.0 °F 78% 30.11 in 10.0 mi South 3.5 mph - N/A   Mostly Cloudy
10:15 AM 71.6 °F 64.4 °F 78% 30.11 in 10.0 mi SE 4.6 mph - N/A Thunderstorm Mostly Cloudy
10:35 AM 71.8 °F 64.2 °F 77% 30.11 in 10.0 mi SSE 4.6 mph - N/A Thunderstorm Scattered Clouds
10:55 AM 71.4 °F 64.9 °F 80% 30.14 in 10.0 mi NW 10.4 mph 20.7 mph N/A Thunderstorm Mostly Cloudy
11:15 AM 70.5 °F 65.1 °F 83% 30.14 in 10.0 mi North 6.9 mph - N/A   Mostly Cloudy
11:35 AM 70.5 °F 65.1 °F 83% 30.13 in 10.0 mi North 5.8 mph - N/A   Mostly Cloudy
11:55 AM 70.0 °F 64.9 °F 84% 30.12 in 10.0 mi North 3.5 mph - N/A Rain Rain
12:15 PM 70.2 °F 66.2 °F 87% 30.12 in 5.0 mi Calm Calm - N/A Rain Rain
12:35 PM 70.7 °F 66.4 °F 86% 30.12 in 10.0 mi Calm Calm - N/A   Mostly Cloudy
12:55 PM 72.0 °F 66.9 °F 84% 30.11 in 10.0 mi Calm Calm - N/A   Scattered Clouds
1:15 PM 73.2 °F 66.0 °F 78% 30.11 in 10.0 mi Calm Calm - N/A   Clear
1:35 PM 74.1 °F 66.4 °F 77% 30.10 in 10.0 mi Calm Calm - N/A   Clear
1:55 PM 74.3 °F 65.8 °F 75% 30.10 in 10.0 mi Calm Calm - N/A   Scattered Clouds
2:15 PM 73.6 °F 66.7 °F 79% 30.12 in 10.0 mi WNW 12.7 mph - N/A   Overcast
2:35 PM 70.9 °F 67.5 °F 89% 30.12 in 7.0 mi WNW 10.4 mph - N/A   Overcast
2:55 PM 68.4 °F 68.2 °F 99% 30.09 in 1.5 mi SE 5.8 mph - 0.12 in Rain Light Rain
3:15 PM 68.9 °F 68.9 °F 100% 30.07 in 5.0 mi East 5.8 mph - N/A Rain Light Rain
3:35 PM 69.8 °F 69.4 °F 99% 30.06 in 7.0 mi East 5.8 mph - 0.01 in   Mostly Cloudy
3:55 PM 70.0 °F 69.3 °F 98% 30.04 in 10.0 mi East 4.6 mph - 0.01 in   Mostly Cloudy
4:15 PM 71.1 °F 69.8 °F 96% 30.04 in 10.0 mi ESE 5.8 mph - N/A   Scattered Clouds
4:35 PM 72.0 °F 69.1 °F 91% 30.04 in 10.0 mi Calm Calm - N/A   Clear
4:55 PM 72.7 °F 69.8 °F 91% 30.05 in 10.0 mi Calm Calm - N/A   Clear
5:15 PM 72.5 °F 69.8 °F 91% 30.05 in 10.0 mi Calm Calm - N/A   Clear
5:35 PM 72.5 °F 70.3 °F 93% 30.04 in 10.0 mi Calm Calm - N/A   Clear
5:55 PM 72.1 °F 70.7 °F 95% 30.04 in 10.0 mi Calm Calm - N/A   Clear
6:15 PM 71.6 °F 70.7 °F 97% 30.04 in 10.0 mi Calm Calm - N/A   Clear
6:35 PM 71.4 °F 70.7 °F 98% 30.04 in 10.0 mi Calm Calm - N/A   Clear
6:55 PM 70.3 °F 70.3 °F 100% 30.04 in 7.0 mi Calm Calm - N/A   Clear
7:15 PM 69.4 °F 69.4 °F 100% 30.04 in 5.0 mi Calm Calm - N/A   Clear
7:35 PM 69.1 °F 69.1 °F 100% 30.05 in 5.0 mi Calm Calm - N/A   Scattered Clouds
7:55 PM 68.7 °F 68.7 °F 100% 30.06 in 5.0 mi Calm Calm - N/A   Mostly Cloudy
8:15 PM 68.5 °F 68.5 °F 100% 30.07 in 5.0 mi North 3.5 mph - N/A   Scattered Clouds
8:35 PM 69.1 °F 69.1 °F 100% 30.08 in 7.0 mi North 5.8 mph - N/A   Mostly Cloudy
8:55 PM 68.9 °F 68.9 °F 100% 30.08 in 5.0 mi NNE 3.5 mph - N/A   Mostly Cloudy
9:15 PM 68.4 °F 68.4 °F 100% 30.08 in 5.0 mi NE 4.6 mph - N/A   Scattered Clouds
9:35 PM 68.4 °F 68.4 °F 100% 30.09 in 5.0 mi NE 4.6 mph - N/A   Mostly Cloudy
9:55 PM 68.5 °F 68.5 °F 100% 30.09 in 5.0 mi NE 4.6 mph - N/A   Overcast
10:15 PM 68.9 °F 68.9 °F 100% 30.09 in 7.0 mi NE 4.6 mph - N/A   Overcast
10:35 PM 68.4 °F 68.4 °F 100% 30.08 in 7.0 mi ENE 6.9 mph - N/A Thunderstorm Scattered Clouds
10:55 PM 68.5 °F 68.5 °F 100% 30.08 in 7.0 mi East 4.6 mph - N/A Thunderstorm Mostly Cloudy
11:15 PM 68.4 °F 68.2 °F 99% 30.08 in 7.0 mi East 6.9 mph - N/A Thunderstorm Overcast
11:35 PM 68.4 °F 68.2 °F 99% 30.08 in 7.0 mi ESE 4.6 mph - N/A Thunderstorm Overcast
11:55 PM 68.0 °F 68.0 °F 100% 30.08 in 7.0 mi ESE 3.5 mph - N/A   Mostly Cloudy